Location: UMBC
(39.2555°N, 76.7093°W)
Time: 22:00:18
(UTC+01:00)

Amateur Radio Satellites - All Passes

Search period start: 23 November 2014 21:30
Search period end: 24 November 2014 21:30
Location: UMBC, 39.2555°N, 76.7093°W

Satellite Date Start Highest point End Downlink Frequencies (MHz)
Time Altitude Azimuth
Gurwin Techsat 1B 23 Nov 21:33:32 21:36:05 14° 270° (W) 21:38:39 435.225
MaSat-1 23 Nov 21:33:53 21:37:00 70° 113° (ESE) 21:39:49 437.345
YUBILEINY 23 Nov 21:41:18 21:48:01 26° 278° (W) 21:54:43 435.215
PHONESAT 2.4 23 Nov 21:42:04 21:45:28 34° 154° (SSE) 21:48:52 2401.200-2431.200
JAS-2 23 Nov 21:47:51 21:54:49 43° 67° (ENE) 22:02:06 435.910
RS-15 23 Nov 21:50:46 22:01:10 51° 111° (ESE) 22:11:30 29.354- 29.394
Cubesat XI-IV 23 Nov 21:57:24 21:58:11 10° 58° (ENE) 21:58:58 437.490
KKS-1 23 Nov 22:03:13 22:05:43 15° 296° (WNW) 22:08:13 437.445
VERMONT LUNAR 23 Nov 22:04:33 22:08:07 60° 161° (SSE) 22:11:42 437.305
O/OREOS (USA 219) 23 Nov 22:13:54 22:18:21 66° 67° (ENE) 22:22:48 437.305
AO-7 23 Nov 22:25:59 22:33:38 41° 261° (W) 22:41:23 29.400- 29.500
CUTE-I 23 Nov 22:35:42 22:39:55 24° 65° (ENE) 22:44:07 437.470
MOZHAYETS 4 23 Nov 22:45:56 22:50:25 45° 99° (E) 22:54:52
PHONESAT 2.4 23 Nov 23:20:23 23:24:07 84° 350° (N) 23:27:51 2401.200-2431.200
PRISM 23 Nov 23:23:16 23:26:19 19° 94° (E) 23:29:20 437.425
Cubesat XI-IV 23 Nov 23:32:00 23:37:22 79° 75° (ENE) 23:42:45 437.490
JAS-2 23 Nov 23:32:48 23:39:44 41° 265° (W) 23:47:04 435.910
GONETS M04 23 Nov 23:39:26 23:43:11 13° 59° (ENE) 23:46:55
VERMONT LUNAR 23 Nov 23:43:00 23:46:38 71° 357° (N) 23:50:16 437.305
STRAND 1 23 Nov 23:45:48 23:48:14 13° 91° (E) 23:50:39 437.568
O/OREOS (USA 219) 23 Nov 23:56:23 23:57:07 10° 263° (W) 23:57:51 437.305
RS-15 24 Nov 00:03:09 00:13:34 47° 313° (NW) 00:24:04 29.354- 29.394
HO-68 24 Nov 00:04:21 00:05:47 11° 50° (NE) 00:07:12 435.675
CUTE-I 24 Nov 00:14:37 00:19:41 43° 261° (W) 00:24:47 437.470
CUBESAT XI-V 24 Nov 00:19:43 00:23:52 31° 96° (E) 00:27:58 437.345
MOZHAYETS 4 24 Nov 00:24:09 00:27:17 18° 294° (WNW) 00:30:24
PCSat 24 Nov 00:43:37 00:45:59 13° 103° (ESE) 00:48:21 145.827
PRISM 24 Nov 00:58:06 01:01:56 33° 290° (WNW) 01:05:44 437.425
PHONESAT 2.4 24 Nov 00:59:19 01:03:03 76° 7° (N) 01:06:46 2401.200-2431.200
GOMX 1 24 Nov 01:06:49 01:07:21 10° 63° (ENE) 01:07:52 467.674
Cubesat XI-IV 24 Nov 01:16:07 01:18:01 12° 270° (W) 01:19:56 437.490
BRITE-PL 24 Nov 01:18:24 01:22:06 21° 68° (ENE) 01:25:36 437.365/2234.400
VERMONT LUNAR 24 Nov 01:21:35 01:25:13 82° 194° (SSW) 01:28:51 437.305
STRAND 1 24 Nov 01:22:47 01:27:52 66° 286° (WNW) 01:32:54 437.568
SEEDS 24 Nov 01:32:02 01:35:09 21° 68° (ENE) 01:38:18 437.485
GONETS M04 24 Nov 01:32:58 01:41:48 70° 81° (E) 01:50:32
DX 1 24 Nov 01:44:52 01:46:16 11° 62° (ENE) 01:47:41 434.975-435.025
HO-68 24 Nov 01:44:59 01:51:59 59° 69° (ENE) 01:59:01 435.675
SHINDAISAT 24 Nov 01:45:29 01:47:00 37° 241° (WSW) 01:48:30 437.305
AIST 1 24 Nov 01:49:11 01:53:31 66° 95° (E) 01:57:55
AAUSAT CUBESAT 2 24 Nov 01:53:51 01:57:20 27° 70° (ENE) 02:00:51 437.432
CANX-2 24 Nov 01:55:14 01:59:16 48° 73° (ENE) 02:03:20 2200.000
CUBESAT XI-V 24 Nov 01:57:22 02:01:09 25° 292° (WNW) 02:04:55 437.345
COMPASS 1 24 Nov 02:06:46 02:10:41 43° 73° (ENE) 02:14:39 437.405
DOVE 4 24 Nov 02:10:42 02:14:58 35° 72° (ENE) 02:19:01 437.250
DELFI C3 24 Nov 02:13:06 02:15:57 19° 67° (ENE) 02:18:48 145.870
RS-15 24 Nov 02:22:27 02:29:42 19° 345° (NNW) 02:37:05 29.354- 29.394
PCSat 24 Nov 02:23:15 02:28:39 78° 299° (WNW) 02:34:06 145.827
AISAT 24 Nov 02:28:07 02:29:01 11° 62° (ENE) 02:29:55 437.250
CUTE 1.7 & AOD 2 24 Nov 02:30:05 02:34:17 72° 259° (WSW) 02:38:31 437.475
PHONESAT 2.4 24 Nov 02:38:13 02:41:47 45° 203° (SSW) 02:45:20 2401.200-2431.200
GOMX 1 24 Nov 02:39:59 02:44:55 83° 257° (WSW) 02:49:31 467.674
BEESAT 3 24 Nov 02:44:05 02:48:10 83° 120° (ESE) 02:52:21 437.485
FUNcube-1 24 Nov 02:44:39 02:47:53 22° 69° (ENE) 02:51:05 145.935
UKube-1 24 Nov 02:44:48 02:49:00 49° 73° (ENE) 02:53:13 .
BRITE-PL 24 Nov 02:55:28 03:00:22 43° 261° (W) 03:04:56 437.365/2234.400
BEESAT 2 24 Nov 02:57:21 03:01:27 79° 302° (WNW) 03:05:39 435.950
CUBEBUG 2 24 Nov 02:57:35 03:01:38 42° 73° (ENE) 03:05:37 437.445
Oscar 11 24 Nov 02:58:02 03:02:18 76° 76° (ENE) 03:06:37 145.826/435.025
VERMONT LUNAR 24 Nov 03:00:27 03:03:27 24° 210° (SSW) 03:06:26 437.305
UWE-3 24 Nov 03:03:18 03:07:19 41° 73° (ENE) 03:11:16 435.000/436.395/437.385
CINEMA 3 24 Nov 03:05:39 03:10:08 86° 77° (ENE) 03:14:27 145.822/145.860
SEEDS 24 Nov 03:07:06 03:10:48 30° 263° (W) 03:14:32 437.485
DX 1 24 Nov 03:17:34 03:21:56 68° 258° (WSW) 03:26:19 434.975-435.025
AIST 2 24 Nov 03:20:09 03:24:22 88° 120° (ESE) 03:28:40 435.215
ESTCUBE 1 24 Nov 03:27:01 03:29:58 17° 65° (ENE) 03:32:56 437.505/2401.250
AAUSAT CUBESAT 2 24 Nov 03:29:41 03:32:59 23° 265° (W) 03:36:18 437.432
AIST 1 24 Nov 03:30:57 03:31:40 10° 292° (WNW) 03:32:23
GONETS M04 24 Nov 03:31:15 03:37:43 24° 279° (W) 03:44:09
CANX-2 24 Nov 03:33:30 03:35:29 13° 269° (W) 03:37:28 2200.000
HO-68 24 Nov 03:34:19 03:40:02 25° 266° (W) 03:45:48 435.675
VELOX 1 24 Nov 03:35:59 03:40:22 56° 73° (ENE) 03:44:45 145.980
ZACube-1 24 Nov 03:43:56 03:48:11 77° 258° (WSW) 03:52:22 437.345
COMPASS 1 24 Nov 03:44:23 03:46:38 14° 268° (W) 03:48:55 437.405
HUMSAT D 24 Nov 03:46:30 03:50:37 67° 75° (ENE) 03:54:43 437.325/437.525
DELFI C3 24 Nov 03:47:22 03:51:01 32° 263° (W) 03:54:42 145.870
DOVE 4 24 Nov 03:49:17 03:52:47 21° 265° (W) 03:56:10 437.250
50 SAT 24 Nov 03:52:32 03:56:32 65° 75° (ENE) 04:00:33 437.505
AISAT 24 Nov 04:00:31 04:05:01 76° 258° (WSW) 04:09:31 437.250
POLYITAN 1 24 Nov 04:04:17 04:06:53 16° 93° (E) 04:09:29 437.675
QB50P2 24 Nov 04:07:11 04:10:00 17° 93° (E) 04:12:48 145.880/145.840
PCSat 24 Nov 04:10:24 04:12:59 13° 318° (NW) 04:15:35 145.827
TIGRISAT 24 Nov 04:12:25 04:16:18 29° 97° (E) 04:20:13 435.000
DUCHIFAT 1 24 Nov 04:14:39 04:17:49 20° 94° (E) 04:20:57 145.980
PHONESAT 2.4 24 Nov 04:19:19 04:20:00 10° 217° (SW) 04:20:40 2401.200-2431.200
FUNcube-1 24 Nov 04:20:24 04:24:06 29° 263° (W) 04:27:46 145.935
TISAT 1 24 Nov 04:21:34 04:24:04 15° 65° (ENE) 04:26:35 437.305
CUBEBUG 1 24 Nov 04:23:02 04:27:26 64° 75° (ENE) 04:31:51 437.445
UKube-1 24 Nov 04:23:14 04:25:26 14° 268° (W) 04:27:39 .
SPROUT 24 Nov 04:23:42 04:25:58 14° 65° (ENE) 04:28:14 437.525
UNISAT 6 24 Nov 04:24:23 04:28:35 41° 99° (E) 04:32:51 437.425
BEESAT 3 24 Nov 04:25:18 04:26:59 12° 318° (NW) 04:28:40 437.485
NANOSAT C BR1 24 Nov 04:33:06 04:36:56 33° 98° (E) 04:40:45 145.865
CUBEBUG 2 24 Nov 04:36:00 04:38:31 15° 267° (W) 04:41:00 437.445
BEESAT 2 24 Nov 04:39:53 04:40:28 10° 320° (NW) 04:41:04 435.950
RS-15 24 Nov 04:39:57 04:47:59 22° 22° (NNE) 04:56:12 29.354- 29.394
UWE-3 24 Nov 04:41:34 04:44:02 15° 267° (W) 04:46:30 435.000/436.395/437.385
QB50P1 24 Nov 04:42:29 04:46:31 43° 99° (E) 04:50:32 145.935-145.965
ANTELSAT 24 Nov 04:52:40 04:57:07 86° 103° (ESE) 05:01:39 437.575/2403.000
AIST 2 24 Nov 05:01:55 05:03:38 12° 319° (NW) 05:05:22 435.215
ESTCUBE 1 24 Nov 05:02:07 05:06:28 45° 261° (W) 05:10:52 437.505/2401.250
CUSAT 1 24 Nov 05:02:57 05:06:07 18° 76° (ENE) 05:09:53 437.405
BUGSAT 1 24 Nov 05:06:23 05:10:28 69° 102° (ESE) 05:14:29 437.445
POPSAT HIP 1 24 Nov 05:06:48 05:11:03 85° 104° (ESE) 05:15:15 437.405
VELOX 1 24 Nov 05:15:17 05:17:16 13° 269° (W) 05:19:16 145.980
DANDE 24 Nov 05:17:32 05:20:49 20° 77° (ENE) 05:24:49 436.750
ITUPSAT 1 24 Nov 05:35:06 05:37:59 16° 63° (ENE) 05:40:53 437.325
ISS 24 Nov 05:35:15 05:38:13 32° 135° (SE) 05:41:12 145.825
POLYITAN 1 24 Nov 05:39:03 05:43:00 39° 288° (WNW) 05:46:56 437.675
QB50P2 24 Nov 05:42:09 05:46:03 36° 289° (WNW) 05:49:55 145.880/145.840
SWISSCUBE 24 Nov 05:46:06 05:49:48 23° 66° (ENE) 05:53:30 437.505
TIGRISAT 24 Nov 05:49:23 05:52:55 24° 291° (WNW) 05:56:30 435.000
DUCHIFAT 1 24 Nov 05:50:01 05:53:43 30° 290° (WNW) 05:57:24 145.980
TISAT 1 24 Nov 05:55:26 05:59:32 45° 261° (W) 06:03:39 437.305
SPROUT 24 Nov 05:57:24 06:01:37 51° 260° (W) 06:05:50 437.525
UNISAT 6 24 Nov 06:02:06 06:05:05 18° 294° (WNW) 06:08:07 437.425
CUBEBUG 1 24 Nov 06:03:05 06:04:13 11° 270° (W) 06:05:20 437.445
AUBIESAT-1 24 Nov 06:08:44 06:12:39 68° 70° (ENE) 06:16:58 437.475
NANOSAT C BR1 24 Nov 06:09:34 06:12:35 19° 293° (WNW) 06:15:36 145.865
M-CUBED/EXP-1 PRIME 24 Nov 06:12:13 06:16:08 83° 71° (ENE) 06:20:28 437.505
BEESAT 24 Nov 06:16:46 06:21:15 42° 71° (ENE) 06:25:46 436.000
QB50P1 24 Nov 06:19:34 06:22:03 16° 295° (WNW) 06:24:33 145.935-145.965
CUSAT 1 24 Nov 06:44:48 06:49:09 46° 263° (W) 06:54:55 437.405
STARS 24 Nov 06:49:48 06:51:35 12° 63° (ENE) 06:53:21 437.465
YUBILEINY 24 Nov 06:52:23 06:55:50 13° 75° (ENE) 06:59:15 435.215
RS-15 24 Nov 06:52:25 07:03:28 58° 51° (NE) 07:14:57 29.354- 29.394
DANDE 24 Nov 07:00:07 07:04:12 38° 263° (W) 07:09:34 436.750
Oscar 19 24 Nov 07:02:04 07:06:40 32° 97° (E) 07:11:15 437.125/150
ITUPSAT 1 24 Nov 07:10:42 07:15:24 55° 259° (W) 07:20:09 437.325
ISS 24 Nov 07:11:57 07:14:52 29° 331° (NNW) 07:17:47 145.825
MaSat-1 24 Nov 07:13:54 07:16:13 88° 247° (WSW) 07:18:36 437.345
KKS-1 24 Nov 07:22:35 07:26:45 40° 71° (ENE) 07:30:56 437.445
SWISSCUBE 24 Nov 07:22:58 07:27:25 37° 262° (W) 07:31:53 437.505
JUGNU 24 Nov 07:31:38 07:32:45 11° 176° (S) 07:33:52 437.505
ITAMSAT 1 24 Nov 07:49:45 07:54:28 34° 97° (E) 07:59:08 435.822/435.867
BEESAT 24 Nov 07:55:50 07:59:16 19° 266° (W) 08:02:42 436.000
Gurwin Techsat 1B 24 Nov 08:08:07 08:12:46 30° 96° (E) 08:17:22 435.225
STARS 24 Nov 08:23:09 08:27:31 63° 259° (WSW) 08:31:54 437.465
HORYU 2 24 Nov 08:31:23 08:34:40 20° 94° (E) 08:37:57 437.375
AO-7 24 Nov 08:38:59 08:42:07 12° 88° (E) 08:45:14 29.400- 29.500
Oscar 19 24 Nov 08:41:29 08:45:54 29° 292° (WNW) 08:50:19 437.125/150
YUBILEINY 24 Nov 08:42:14 08:51:01 76° 94° (E) 08:59:47 435.215
ISS 24 Nov 08:51:28 08:52:22 11° 351° (N) 08:53:17 145.825
KKS-1 24 Nov 09:00:36 09:03:33 17° 267° (W) 09:06:31 437.445
RS-15 24 Nov 09:05:16 09:15:28 41° 252° (WSW) 09:26:06 29.354- 29.394
SO-50 24 Nov 09:25:13 09:29:00 27° 112° (ESE) 09:32:54 436.795
SRMSAT 24 Nov 09:25:44 09:27:16 11° 179° (S) 09:28:48 437.500
ITAMSAT 1 24 Nov 09:29:28 09:33:48 28° 293° (WNW) 09:38:06 435.822/435.867
PCSat 24 Nov 09:31:17 09:33:13 12° 40° (NE) 09:35:09 145.827
MOZHAYETS 4 24 Nov 09:47:07 09:51:19 37° 71° (ENE) 09:55:34
Gurwin Techsat 1B 24 Nov 09:47:59 09:52:40 33° 292° (WNW) 09:57:20 435.225
HORYU 2 24 Nov 10:07:20 10:11:26 36° 289° (WNW) 10:15:32 437.375
PRISM 24 Nov 10:14:28 10:16:34 14° 64° (ENE) 10:18:41 437.425
AO-7 24 Nov 10:27:45 10:36:09 74° 106° (ESE) 10:44:29 29.400- 29.500
ISS 24 Nov 10:29:00 10:30:13 12° 12° (NNE) 10:31:27 145.825
YUBILEINY 24 Nov 10:42:11 10:48:42 23° 294° (WNW) 10:55:15 435.215
JAS-2 24 Nov 10:44:29 10:51:01 38° 94° (E) 10:56:49 435.910
STRAND 1 24 Nov 11:00:22 11:03:57 19° 64° (ENE) 11:07:32 437.568
BEESAT 3 24 Nov 11:05:15 11:09:11 37° 53° (NE) 11:13:03 437.485
SO-50 24 Nov 11:05:22 11:09:26 32° 310° (NW) 11:13:38 436.795
PCSat 24 Nov 11:12:16 11:17:41 67° 60° (ENE) 11:23:03 145.827
BEESAT 2 24 Nov 11:18:45 11:22:50 46° 55° (NE) 11:26:51 435.950
CUBESAT XI-V 24 Nov 11:22:24 11:26:24 28° 69° (ENE) 11:30:25 437.345
MOZHAYETS 4 24 Nov 11:25:18 11:28:39 20° 267° (W) 11:32:02
AIST 2 24 Nov 11:43:22 11:47:29 42° 54° (NE) 11:51:31 435.215
PRISM 24 Nov 11:47:36 11:51:40 51° 260° (W) 11:55:48 437.425
Cubesat XI-IV 24 Nov 11:50:50 11:55:40 34° 97° (E) 12:00:26 437.490
AIST 1 24 Nov 11:59:04 12:01:38 15° 71° (ENE) 12:04:11
ISS 24 Nov 12:04:35 12:07:39 34° 31° (NNE) 12:10:42 145.825
AO-7 24 Nov 12:21:42 12:28:08 26° 304° (NW) 12:34:35 29.400- 29.500
O/OREOS (USA 219) 24 Nov 12:24:53 12:29:23 84° 291° (WNW) 12:33:53 437.305
JAS-2 24 Nov 12:29:29 12:35:58 38° 295° (WNW) 12:41:48 435.910
CUTE-I 24 Nov 12:32:31 12:37:52 83° 104° (ESE) 12:43:11 437.470
STRAND 1 24 Nov 12:37:44 12:42:43 51° 260° (W) 12:47:45 437.568
GONETS M04 24 Nov 12:41:06 12:45:26 15° 76° (ENE) 12:49:47
BEESAT 3 24 Nov 12:44:07 12:47:09 20° 249° (WSW) 12:50:08 437.485
PCSat 24 Nov 12:57:23 13:00:28 16° 256° (WSW) 13:03:33 145.827
BEESAT 2 24 Nov 12:58:13 13:00:44 16° 251° (WSW) 13:03:14 435.950
CUBESAT XI-V 24 Nov 12:59:42 13:03:45 28° 264° (W) 13:07:50 437.345
AIST 2 24 Nov 13:22:52 13:25:47 18° 250° (WSW) 13:28:40 435.215
Cubesat XI-IV 24 Nov 13:31:05 13:35:37 29° 293° (WNW) 13:40:07 437.490
AIST 1 24 Nov 13:35:23 13:39:32 42° 268° (W) 13:43:38
ISS 24 Nov 13:41:25 13:44:12 25° 227° (SW) 13:46:58 145.825
CUTE-I 24 Nov 14:14:57 14:17:11 13° 300° (WNW) 14:19:26 437.470
CUTE 1.7 & AOD 2 24 Nov 14:17:26 14:20:43 21° 94° (E) 14:23:59 437.475
GONETS M04 24 Nov 14:31:59 14:40:46 83° 95° (E) 14:49:39
GOMX 1 24 Nov 14:43:28 14:47:01 27° 96° (E) 14:50:36 467.674
Oscar 11 24 Nov 14:48:01 14:50:31 15° 92° (E) 14:53:00 145.826/435.025
SEEDS 24 Nov 14:52:29 14:56:35 45° 99° (E) 15:00:41 437.485
POLYITAN 1 24 Nov 14:58:20 14:59:56 12° 64° (ENE) 15:01:31 437.675
QB50P2 24 Nov 15:00:52 15:02:45 13° 64° (ENE) 15:04:39 145.880/145.840
HO-68 24 Nov 15:01:11 15:08:21 67° 103° (ESE) 15:15:27 435.675
BRITE-PL 24 Nov 15:01:18 15:05:25 62° 101° (E) 15:09:33 437.365/2234.400
CINEMA 3 24 Nov 15:02:27 15:05:35 20° 95° (E) 15:08:45 145.822/145.860
DUCHIFAT 1 24 Nov 15:07:41 15:10:06 15° 65° (ENE) 15:12:31 145.980
DX 1 24 Nov 15:07:57 15:11:19 22° 95° (E) 15:14:40 434.975-435.025
TIGRISAT 24 Nov 15:11:10 15:14:31 23° 68° (ENE) 15:17:52 435.000
AAUSAT CUBESAT 2 24 Nov 15:13:25 15:17:37 60° 100° (E) 15:21:47 437.432
CANX-2 24 Nov 15:17:32 15:21:49 71° 284° (WNW) 15:26:05 2200.000
UNISAT 6 24 Nov 15:23:10 15:26:57 31° 70° (ENE) 15:30:44 437.425
NANOSAT C BR1 24 Nov 15:25:38 15:29:01 23° 68° (ENE) 15:32:24 145.865
COMPASS 1 24 Nov 15:27:15 15:31:31 82° 283° (WNW) 15:35:46 437.405
DELFI C3 24 Nov 15:29:05 15:32:56 36° 98° (E) 15:36:45 145.870
VELOX 1 24 Nov 15:30:30 15:31:55 11° 91° (E) 15:33:19 145.980
HUMSAT D 24 Nov 15:34:24 15:35:58 12° 91° (E) 15:37:32 437.325/437.525
ZACube-1 24 Nov 15:34:31 15:37:45 21° 95° (E) 15:41:01 437.345
QB50P1 24 Nov 15:34:52 15:38:34 30° 70° (ENE) 15:42:17 145.935-145.965
DOVE 4 24 Nov 15:48:08 15:52:17 71° 284° (WNW) 15:56:31 437.250
ANTELSAT 24 Nov 15:51:09 15:55:23 67° 75° (ENE) 15:59:38 437.575/2403.000
CUTE 1.7 & AOD 2 24 Nov 15:52:53 15:56:40 31° 289° (WNW) 16:00:26 437.475
AISAT 24 Nov 15:53:44 15:57:11 22° 95° (E) 16:00:36 437.250
BUGSAT 1 24 Nov 15:55:39 15:59:40 42° 72° (ENE) 16:03:41 437.445
POPSAT HIP 1 24 Nov 15:58:51 16:03:01 55° 74° (ENE) 16:07:11 437.405
FUNcube-1 24 Nov 16:09:26 16:13:34 52° 100° (E) 16:17:46 145.935
UKube-1 24 Nov 16:09:45 16:14:06 75° 285° (WNW) 16:18:25 .
CUBEBUG 1 24 Nov 16:15:23 16:17:19 13° 91° (E) 16:19:15 437.445
GOMX 1 24 Nov 16:21:49 16:25:03 22° 291° (WNW) 16:28:18 467.674
Oscar 11 24 Nov 16:22:45 16:26:54 45° 287° (WNW) 16:31:02 145.826/435.025
CUBEBUG 2 24 Nov 16:26:06 16:30:18 71° 284° (WNW) 16:34:37 437.445
SEEDS 24 Nov 16:29:35 16:32:02 15° 294° (WNW) 16:34:30 437.485
UWE-3 24 Nov 16:30:29 16:34:42 73° 284° (WNW) 16:39:00 435.000/436.395/437.385
POLYITAN 1 24 Nov 16:31:09 16:35:22 60° 259° (W) 16:39:35 437.675
GONETS M04 24 Nov 16:32:33 16:38:40 20° 296° (WNW) 16:44:52
QB50P2 24 Nov 16:34:01 16:38:12 55° 260° (W) 16:42:24 145.880/145.840
CINEMA 3 24 Nov 16:39:07 16:42:50 31° 289° (WNW) 16:46:38 145.822/145.860
DUCHIFAT 1 24 Nov 16:41:29 16:45:35 46° 261° (W) 16:49:41 145.980
BRITE-PL 24 Nov 16:42:58 16:43:25 10° 297° (WNW) 16:43:52 437.365/2234.400
DX 1 24 Nov 16:43:45 16:47:34 31° 291° (WNW) 16:51:22 434.975-435.025
TIGRISAT 24 Nov 16:47:28 16:51:09 28° 264° (W) 16:54:50 435.000
HO-68 24 Nov 16:50:00 16:55:26 24° 301° (WNW) 17:00:51 435.675
AAUSAT CUBESAT 2 24 Nov 16:51:14 16:52:46 12° 296° (WNW) 16:54:19 437.432
ESTCUBE 1 24 Nov 16:56:09 17:00:26 40° 98° (E) 17:04:40 437.505/2401.250
UNISAT 6 24 Nov 17:00:37 17:03:48 20° 266° (W) 17:06:59 437.425
NANOSAT C BR1 24 Nov 17:01:07 17:04:46 28° 264° (W) 17:08:27 145.865
VELOX 1 24 Nov 17:04:31 17:08:53 60° 286° (WNW) 17:13:13 145.980
DELFI C3 24 Nov 17:05:12 17:07:57 18° 293° (WNW) 17:10:42 145.870
HUMSAT D 24 Nov 17:08:01 17:12:04 52° 286° (WNW) 17:16:08 437.325/437.525
50 SAT 24 Nov 17:09:53 17:13:53 58° 285° (WNW) 17:17:53 437.505
ZACube-1 24 Nov 17:10:27 17:14:09 30° 289° (WNW) 17:17:53 437.345
QB50P1 24 Nov 17:11:09 17:14:28 22° 265° (W) 17:17:47 145.935-145.965
AISAT 24 Nov 17:29:56 17:33:50 31° 290° (WNW) 17:37:43 437.250
BUGSAT 1 24 Nov 17:32:48 17:35:21 15° 267° (W) 17:37:53 437.445
POPSAT HIP 1 24 Nov 17:37:47 17:39:15 12° 269° (W) 17:40:43 437.405
TISAT 1 24 Nov 17:41:57 17:45:39 29° 97° (E) 17:49:19 437.305
SPROUT 24 Nov 17:45:43 17:49:27 29° 96° (E) 17:53:09 437.525
FUNcube-1 24 Nov 17:47:32 17:49:30 13° 295° (WNW) 17:51:29 145.935
CUBEBUG 1 24 Nov 17:49:45 17:54:01 52° 287° (WNW) 17:58:13 437.445
SO-50 24 Nov 17:57:20 18:01:15 24° 47° (NE) 18:05:10 436.795
Oscar 19 24 Nov 18:17:56 18:22:42 42° 70° (ENE) 18:27:29 437.125/150
CUSAT 1 24 Nov 18:18:01 18:18:30 10° 93° (E) 18:19:00 437.405
BEESAT 24 Nov 18:20:38 18:22:11 11° 90° (E) 18:23:43 436.000
ESTCUBE 1 24 Nov 18:33:48 18:37:00 19° 294° (WNW) 18:40:11 437.505/2401.250
DANDE 24 Nov 18:34:15 18:36:05 15° 95° (E) 18:37:47 436.750
YUBILEINY 24 Nov 18:54:16 19:02:05 35° 72° (ENE) 19:09:48 435.215
ITAMSAT 1 24 Nov 19:06:36 19:11:35 48° 71° (ENE) 19:16:35 435.822/435.867
ITUPSAT 1 24 Nov 19:12:39 19:17:12 41° 99° (E) 19:21:42 437.325
TISAT 1 24 Nov 19:18:06 19:21:20 22° 292° (WNW) 19:24:32 437.305
SPROUT 24 Nov 19:22:02 19:25:24 23° 292° (WNW) 19:28:44 437.525
SWISSCUBE 24 Nov 19:24:12 19:28:58 61° 101° (E) 19:33:41 437.505
AUBIESAT-1 24 Nov 19:26:58 19:31:54 72° 106° (ESE) 19:36:42 437.475
Gurwin Techsat 1B 24 Nov 19:28:05 19:33:04 43° 70° (ENE) 19:38:04 435.225
HORYU 2 24 Nov 19:29:48 19:32:40 17° 65° (ENE) 19:35:32 437.375
M-CUBED/EXP-1 PRIME 24 Nov 19:30:51 19:35:50 86° 108° (ESE) 19:40:41 437.505
AO-7 24 Nov 19:36:25 19:41:55 20° 52° (NE) 19:47:25 29.400- 29.500
SO-50 24 Nov 19:37:20 19:42:01 48° 244° (WSW) 19:46:43 436.795
VERMONT LUNAR 24 Nov 19:51:20 19:53:03 13° 144° (SE) 19:54:46 437.305
BEESAT 24 Nov 19:55:42 20:00:29 69° 286° (WNW) 20:05:14 436.000
Oscar 19 24 Nov 19:58:18 20:02:11 22° 266° (W) 20:06:05 437.125/150
CUSAT 1 24 Nov 19:59:56 20:01:29 14° 285° (WNW) 20:02:58 437.405
STARS 24 Nov 20:14:54 20:18:33 25° 96° (E) 20:22:11 437.465
DANDE 24 Nov 20:19:03 20:19:29 10° 286° (WNW) 20:19:54 436.750
MaSat-1 24 Nov 20:42:17 20:44:30 18° 109° (ESE) 20:46:35 437.345
ITAMSAT 1 24 Nov 20:47:34 20:51:18 20° 267° (W) 20:55:02 435.822/435.867
YUBILEINY 24 Nov 20:50:49 20:59:03 49° 271° (W) 21:07:13 435.215
KKS-1 24 Nov 20:51:12 20:55:39 82° 284° (WNW) 21:00:05 437.445
ITUPSAT 1 24 Nov 20:51:15 20:54:48 21° 295° (WNW) 20:58:19 437.325
JAS-2 24 Nov 20:55:42 21:00:45 19° 57° (ENE) 21:05:52 435.910
O/OREOS (USA 219) 24 Nov 20:57:56 21:00:38 16° 56° (NE) 21:03:20 437.305
AUBIESAT-1 24 Nov 21:03:36 21:06:15 15° 302° (WNW) 21:08:54 437.475
SWISSCUBE 24 Nov 21:03:41 21:06:18 15° 297° (WNW) 21:08:54 437.505
HORYU 2 24 Nov 21:04:47 21:09:00 43° 261° (W) 21:13:14 437.375
M-CUBED/EXP-1 PRIME 24 Nov 21:08:04 21:10:08 13° 304° (NW) 21:12:13 437.505
Gurwin Techsat 1B 24 Nov 21:09:05 21:13:11 23° 266° (W) 21:17:18 435.225
PHONESAT 2.4 24 Nov 21:09:30 21:12:50 32° 153° (SSE) 21:16:11 2401.200-2431.200
